Location: Limerick
(52.6650°N, 8.6230°W)
Time: 05:45:49
(UTC+00:00)

ISS - Pass Details

Date: 12 December 2019
Orbit: 411 x 421 km, 51.6° (Epoch: 15 December)

Event Time Altitude Azimuth Distance (km) Brightness Sun altitude
Rises 17:20:23 0° 279° (W) 2,357 1.0 -8.6°
Reaches altitude 10° 17:23:04 10° 256° (WSW) 1,493 0.6 -8.9°
Maximum altitude 17:25:08 16° 217° (SW) 1,203 -0.4 -9.2°
Drops below altitude 10° 17:27:12 10° 179° (S) 1,491 -0.6 -9.5°
Sets 17:29:53 0° 156° (SSE) 2,352 0.1 -9.9°
